Location: Oregon Star Party
(44.2935°N, 120.1332°W)
Time: 06:46:25
(UTC-07:00)

Amateur Radio Satellites - All Passes

Search period start: 23 August 2017 06:16
Search period end: 24 August 2017 06:16
Location: Oregon Star Party, 44.2935°N, 120.1332°W

Satellite Date Start Highest point End Downlink Frequencies (MHz)
Time Altitude Azimuth
BEESAT 3 23 Aug 06:27:58 06:31:04 21° 318° (NW) 06:34:11 437.485
NUDT-PHONESAT 23 Aug 06:29:05 06:31:39 17° 93° (E) 06:34:13 437.300
LilacSat-2 23 Aug 06:31:53 06:35:15 28° 95° (E) 06:38:36 437.200
XW-2D 23 Aug 06:32:46 06:36:05 27° 96° (E) 06:39:24 145.860 - 145.880
XW-2B 23 Aug 06:43:43 06:47:17 35° 97° (E) 06:50:49 145.730 - 145.750
BEESAT 2 23 Aug 06:46:59 06:50:38 33° 313° (NW) 06:54:20 435.950
CUTE-I 23 Aug 06:47:28 06:52:18 34° 97° (E) 06:57:05 437.470
NO-84 23 Aug 06:49:29 06:52:11 32° 30° (NNE) 06:55:00 435.350 FM
CUTE 1.7 + AOD 2 23 Aug 07:01:46 07:03:10 11° 88° (E) 07:04:33 437.475
XW-2C 23 Aug 07:02:46 07:06:36 61° 101° (E) 07:10:24 145.795 - 145.815
XW-2F 23 Aug 07:12:40 07:16:32 76° 102° (ESE) 07:20:22 145.980 - 146.000
STRAND 1 23 Aug 07:14:51 07:19:51 60° 72° (ENE) 07:24:54 437.568
STARS 23 Aug 07:16:31 07:17:27 11° 271° (W) 07:18:23 437.465
PCSat 23 Aug 07:24:01 07:29:27 71° 57° (ENE) 07:34:51 145.827
AO-7 23 Aug 07:24:40 07:29:36 17° 316° (NW) 07:34:31 .
SO-50 23 Aug 07:31:35 07:36:10 83° 55° (NE) 07:40:47 436.795
KAITUO 1B 23 Aug 07:33:17 07:37:06 76° 284° (WNW) 07:40:53 145.475/437.950
Tancredo 1 23 Aug 07:38:49 07:39:05 10° 132° (SE) 07:39:20 437.200
FO-29 23 Aug 07:39:12 07:43:27 17° 56° (ENE) 07:47:28 435.910
CUBEBUG 2 23 Aug 07:39:15 07:41:48 15° 91° (E) 07:44:22 437.445
SEEDS 23 Aug 07:42:53 07:46:04 20° 93° (E) 07:49:13 437.485
DOVE 4 23 Aug 07:46:43 07:49:51 19° 297° (WNW) 07:52:54 437.250
NUDT-PHONESAT 23 Aug 08:02:12 08:05:38 34° 289° (WNW) 08:09:03 437.300
HO-68 23 Aug 08:05:08 08:12:09 54° 101° (E) 08:19:08 435.675
LilacSat-2 23 Aug 08:06:17 08:09:25 23° 292° (WNW) 08:12:31 437.200
XW-2D 23 Aug 08:07:03 08:10:09 23° 292° (WNW) 08:13:14 145.860 - 145.880
XW-2B 23 Aug 08:18:29 08:21:13 19° 294° (WNW) 08:23:57 145.730 - 145.750
AAUSAT CUBESAT 2 23 Aug 08:20:02 08:23:23 23° 94° (E) 08:26:42 437.432
AO-73 23 Aug 08:20:04 08:21:57 13° 90° (E) 08:23:50 145.935
XW-2A 23 Aug 08:21:25 08:24:39 39° 99° (E) 08:27:53 145.665 - 145.685
NO-84 23 Aug 08:26:51 08:29:31 28° 226° (SW) 08:32:20 435.350 FM
CUTE-I 23 Aug 08:27:34 08:32:18 34° 294° (WNW) 08:37:00 437.470
CUTE 1.7 + AOD 2 23 Aug 08:35:10 08:39:28 70° 285° (WNW) 08:43:44 437.475
XW-2C 23 Aug 08:38:48 08:40:16 12° 298° (WNW) 08:41:46 145.795 - 145.815
TIGRISAT 23 Aug 08:51:01 08:53:18 14° 62° (ENE) 08:55:34 435.000
STRAND 1 23 Aug 08:56:01 08:59:26 18° 269° (W) 09:02:51 437.568
Oscar 11 23 Aug 09:00:37 09:04:14 25° 94° (E) 09:07:49 .
UWE-3 23 Aug 09:01:18 09:05:33 69° 102° (ESE) 09:09:55 435.000/436.395/437.385
PRISM 23 Aug 09:07:25 09:09:56 16° 63° (ENE) 09:12:28 437.425
RS-15 23 Aug 09:08:35 09:15:33 17° 95° (E) 09:22:32 29.354- 29.394
PCSat 23 Aug 09:08:43 09:12:14 18° 255° (WSW) 09:15:45 145.827
Tancredo 1 23 Aug 09:10:52 09:13:47 86° 146° (SE) 09:16:42 437.200
SO-50 23 Aug 09:14:09 09:15:59 12° 252° (WSW) 09:17:49 436.795
CUBEBUG 2 23 Aug 09:14:36 09:18:41 50° 287° (WNW) 09:22:51 437.445
SEEDS 23 Aug 09:17:56 09:21:53 38° 289° (WNW) 09:25:49 437.485
FO-29 23 Aug 09:20:11 09:27:39 78° 74° (ENE) 09:34:23 435.910
O/OREOS (USA 219) 23 Aug 09:29:04 09:33:30 68° 111° (ESE) 09:37:58 437.305
ISS 23 Aug 09:30:52 09:33:55 35° 140° (SE) 09:36:57 437.550
ZACube-1 23 Aug 09:34:45 09:39:05 88° 101° (E) 09:43:29 437.345
nSIGHT-1 23 Aug 09:35:29 09:38:35 41° 142° (SE) 09:41:41 .
M-CUBED/EXP-1 PRIME 23 Aug 09:47:00 09:48:23 11° 52° (NE) 09:49:45 437.505
Max Valier Satellite 23 Aug 09:47:54 09:49:43 13° 91° (E) 09:51:32 145.860
UNISAT 6 23 Aug 09:50:57 09:55:12 62° 74° (ENE) 09:59:26 437.425
HO-68 23 Aug 09:53:22 09:59:34 33° 300° (WNW) 10:05:47 435.675
AO-73 23 Aug 09:54:18 09:58:34 65° 286° (WNW) 10:02:55 145.935
AAUSAT CUBESAT 2 23 Aug 09:55:08 09:58:53 32° 290° (WNW) 10:02:36 437.432
XW-2A 23 Aug 09:55:22 09:57:02 13° 295° (WNW) 09:58:43 145.665 - 145.685
TIGRISAT 23 Aug 10:25:16 10:29:31 61° 259° (WSW) 10:33:45 435.000
EO-88 23 Aug 10:34:28 10:37:53 35° 98° (E) 10:41:17 145.990 - 145.960
DELFI C3 23 Aug 10:34:43 10:38:41 64° 101° (E) 10:42:36 145.870
Oscar 11 23 Aug 10:36:30 10:40:22 32° 291° (WNW) 10:44:16 .
UWE-3 23 Aug 10:39:34 10:41:29 13° 298° (WNW) 10:43:27 435.000/436.395/437.385
PRISM 23 Aug 10:40:44 10:44:48 52° 259° (W) 10:48:53 437.425
Tancredo 1 23 Aug 10:46:47 10:49:13 23° 347° (NNW) 10:51:39 437.200
ISS 23 Aug 11:07:14 11:10:22 40° 338° (NNW) 11:13:30 437.550
FO-29 23 Aug 11:07:48 11:13:10 21° 269° (W) 11:18:12 435.910
O/OREOS (USA 219) 23 Aug 11:10:41 11:13:25 16° 310° (NW) 11:16:09 437.305
nSIGHT-1 23 Aug 11:11:56 11:15:00 36° 340° (NNW) 11:18:04 .
RS-15 23 Aug 11:13:34 11:25:40 70° 117° (ESE) 11:37:53 29.354- 29.394
ZACube-1 23 Aug 11:13:49 11:14:43 11° 300° (WNW) 11:15:36 437.345
M-CUBED/EXP-1 PRIME 23 Aug 11:17:22 11:21:56 74° 69° (ENE) 11:26:37 437.505
AIST 2D 23 Aug 11:19:36 11:23:04 68° 74° (ENE) 11:26:33 435.315
Max Valier Satellite 23 Aug 11:20:14 11:23:47 45° 288° (WNW) 11:27:21 145.860
NANOSAT C BR1 23 Aug 11:22:07 11:25:44 29° 68° (ENE) 11:29:21 145.865
POLYITAN 1 23 Aug 11:29:15 11:33:07 38° 70° (ENE) 11:37:00 437.675
UNISAT 6 23 Aug 11:30:28 11:32:19 13° 270° (W) 11:34:12 437.425
EO-79 23 Aug 11:43:57 11:48:03 55° 73° (ENE) 11:52:10 145.935-145.965
QB50P2 23 Aug 11:44:16 11:48:24 61° 74° (ENE) 11:52:34 145.880/145.840
LO-87 23 Aug 11:55:01 11:58:25 43° 99° (E) 12:01:47 145.935 - 145.965
BUGSAT 1 23 Aug 12:00:26 12:03:20 19° 65° (ENE) 12:06:13 437.445
ESTCUBE 1 23 Aug 12:02:50 12:07:01 35° 97° (E) 12:11:11 437.505/2401.250
EO-88 23 Aug 12:08:52 12:11:17 17° 294° (WNW) 12:13:42 145.990 - 145.960
DUCHIFAT 1 23 Aug 12:10:22 12:14:32 86° 76° (ENE) 12:18:43 145.980
DELFI C3 23 Aug 12:11:20 12:12:55 12° 298° (WNW) 12:14:30 145.870
Tancredo 1 23 Aug 12:22:48 12:25:03 20° 7° (N) 12:27:17 437.200
Gurwin Techsat 1B 23 Aug 12:33:13 12:36:39 18° 59° (ENE) 12:40:04 435.225
Oscar 19 23 Aug 12:35:14 12:39:25 26° 63° (ENE) 12:43:37 437.125/150
ISS 23 Aug 12:44:48 12:47:27 22° 358° (N) 12:50:05 437.550
nSIGHT-1 23 Aug 12:49:23 12:52:00 22° 360° (N) 12:54:36 .
AO-7 23 Aug 12:52:02 12:55:28 13° 39° (NE) 12:58:54 .
M-CUBED/EXP-1 PRIME 23 Aug 12:54:34 12:56:48 13° 266° (W) 12:59:05 437.505
NANOSAT C BR1 23 Aug 12:57:54 13:01:24 26° 265° (W) 13:04:56 145.865
AO-85 23 Aug 13:00:48 13:04:40 33° 47° (NE) 13:08:46 145.980
BEESAT 3 23 Aug 13:04:34 13:08:29 49° 51° (NE) 13:12:19 437.485
POLYITAN 1 23 Aug 13:05:58 13:09:02 20° 267° (W) 13:12:07 437.675
SPROUT 23 Aug 13:18:33 13:22:45 58° 101° (E) 13:26:55 437.525
EO-79 23 Aug 13:21:58 13:24:09 14° 270° (W) 13:26:20 145.935-145.965
QB50P2 23 Aug 13:22:47 13:24:35 12° 270° (W) 13:26:23 145.880/145.840
BEESAT 2 23 Aug 13:25:14 13:28:51 30° 46° (NE) 13:32:27 435.950
DX 1 23 Aug 13:26:29 13:29:09 16° 92° (E) 13:31:47 434.975-435.025
RS-15 23 Aug 13:27:19 13:39:02 47° 323° (NW) 13:50:46 29.354- 29.394
LO-87 23 Aug 13:29:44 13:31:28 13° 296° (WNW) 13:33:12 145.935 - 145.965
VELOX 1 23 Aug 13:33:04 13:37:28 64° 101° (E) 13:41:49 145.980
BUGSAT 1 23 Aug 13:34:37 13:38:26 38° 262° (W) 13:42:14 437.445
ESTCUBE 1 23 Aug 13:39:57 13:43:39 25° 294° (WNW) 13:47:21 437.505/2401.250
50 SAT 23 Aug 13:47:02 13:50:05 31° 98° (E) 13:53:07 437.505
Tancredo 1 23 Aug 13:57:49 14:00:40 50° 26° (NNE) 14:03:30 437.200
ITAMSAT 1 23 Aug 14:03:19 14:05:46 14° 57° (ENE) 14:08:14 435.822/435.867
Gurwin Techsat 1B 23 Aug 14:10:42 14:15:59 73° 257° (WSW) 14:21:20 435.225
Oscar 19 23 Aug 14:13:34 14:18:29 45° 261° (W) 14:23:27 437.125/150
ISS 23 Aug 14:21:33 14:24:35 33° 18° (NNE) 14:27:35 437.550
nSIGHT-1 23 Aug 14:25:58 14:29:00 35° 20° (NNE) 14:32:02 .
YUBILEINY 23 Aug 14:31:10 14:37:02 20° 77° (ENE) 14:42:52 435.215
UKube-1 23 Aug 14:33:27 14:37:41 52° 101° (E) 14:41:53 .
AO-7 23 Aug 14:38:20 14:46:15 49° 61° (ENE) 14:54:11 .
AO-85 23 Aug 14:41:09 14:45:03 32° 243° (WSW) 14:49:11 145.980
BEESAT 3 23 Aug 14:43:04 14:45:40 17° 249° (WSW) 14:48:13 437.485
SPROUT 23 Aug 14:55:48 14:58:11 15° 298° (WNW) 15:00:34 437.525
DX 1 23 Aug 15:01:24 15:05:38 51° 288° (WNW) 15:09:49 434.975-435.025
BEESAT 2 23 Aug 15:03:00 15:06:35 30° 244° (WSW) 15:10:06 435.950
VELOX 1 23 Aug 15:10:58 15:13:24 15° 299° (WNW) 15:15:49 145.980
ITUPSAT 1 23 Aug 15:11:41 15:14:39 16° 91° (E) 15:17:37 437.325
50 SAT 23 Aug 15:20:25 15:22:29 16° 294° (WNW) 15:24:33 437.505
MOZHAYETS 4 23 Aug 15:29:18 15:32:51 22° 93° (E) 15:36:25
Tancredo 1 23 Aug 15:33:24 15:35:37 20° 223° (SW) 15:37:48 437.200
ITAMSAT 1 23 Aug 15:39:15 15:44:28 87° 75° (ENE) 15:49:41 435.822/435.867
RS-15 23 Aug 15:45:30 15:55:41 28° 356° (N) 16:05:39 29.354- 29.394
ISS 23 Aug 15:57:59 16:01:10 50° 217° (SW) 16:04:20 437.550
nSIGHT-1 23 Aug 16:02:19 16:05:26 43° 218° (SW) 16:08:31 .
UKube-1 23 Aug 16:10:34 16:13:17 17° 298° (WNW) 16:16:02 .
BEESAT 23 Aug 16:11:37 16:16:21 63° 102° (ESE) 16:21:05 436.000
YUBILEINY 23 Aug 16:23:49 16:32:37 88° 277° (W) 16:41:27 435.215
AO-7 23 Aug 16:31:18 16:39:06 42° 261° (W) 16:46:57 .
CUTE-I 23 Aug 16:35:56 16:36:53 10° 54° (NE) 16:37:51 437.470
ITUPSAT 1 23 Aug 16:48:09 16:52:52 59° 288° (WNW) 16:57:33 437.325
HO-68 23 Aug 16:54:48 16:55:59 10° 44° (NE) 16:57:10 435.675
KKS-1 23 Aug 16:55:39 16:58:04 14° 91° (E) 17:00:27 437.445
MOZHAYETS 4 23 Aug 17:05:49 17:10:10 42° 290° (WNW) 17:14:31
NUDT-PHONESAT 23 Aug 17:11:34 17:12:27 11° 62° (ENE) 17:13:19 437.300
DOVE 4 23 Aug 17:13:49 17:18:58 59° 73° (ENE) 17:23:59 437.250
LilacSat-2 23 Aug 17:15:49 17:18:26 18° 66° (ENE) 17:21:04 437.200
XW-2D 23 Aug 17:16:05 17:18:37 17° 66° (ENE) 17:21:10 145.860 - 145.880
ITAMSAT 1 23 Aug 17:22:38 17:24:36 12° 272° (W) 17:26:35 435.822/435.867
STARS 23 Aug 17:25:52 17:27:34 12° 90° (E) 17:29:15 437.465
XW-2B 23 Aug 17:26:48 17:29:42 22° 67° (ENE) 17:32:39 145.730 - 145.750
CUBESAT XI-V 23 Aug 17:33:41 17:38:26 83° 103° (ESE) 17:43:08 437.345
XW-2C 23 Aug 17:45:25 17:48:52 35° 71° (ENE) 17:52:21 145.795 - 145.815
BEESAT 23 Aug 17:50:37 17:53:38 17° 299° (WNW) 17:56:38 436.000
XW-2F 23 Aug 17:54:45 17:58:19 43° 72° (ENE) 18:01:54 145.980 - 146.000
CUTE 1.7 + AOD 2 23 Aug 17:56:46 17:57:51 11° 60° (ENE) 17:58:56 437.475
O/OREOS (USA 219) 23 Aug 17:58:46 18:02:16 21° 54° (NE) 18:05:46 437.305
RS-15 23 Aug 18:01:27 18:12:44 40° 30° (NNE) 18:23:30 29.354- 29.394
CUTE-I 23 Aug 18:10:38 18:15:55 66° 72° (ENE) 18:21:14 437.470
KAITUO 1B 23 Aug 18:14:18 18:17:57 59° 74° (ENE) 18:21:39 145.475/437.950
YUBILEINY 23 Aug 18:24:36 18:30:47 21° 300° (WNW) 18:36:59 435.215
KKS-1 23 Aug 18:30:38 18:35:00 59° 288° (WNW) 18:39:20 437.445
HO-68 23 Aug 18:35:15 18:42:00 48° 65° (ENE) 18:48:47 435.675
SEEDS 23 Aug 18:36:21 18:39:12 18° 64° (ENE) 18:42:04 437.485
CUBEBUG 2 23 Aug 18:39:17 18:41:51 16° 64° (ENE) 18:44:25 437.445
NUDT-PHONESAT 23 Aug 18:42:11 18:45:48 62° 259° (W) 18:49:29 437.300
LilacSat-2 23 Aug 18:48:57 18:52:27 35° 263° (W) 18:56:00 437.200
XW-2D 23 Aug 18:49:02 18:52:32 36° 263° (W) 18:56:04 145.860 - 145.880
DOVE 4 23 Aug 18:53:16 18:56:57 19° 269° (W) 19:00:34 437.250
XW-2A 23 Aug 18:54:47 18:57:04 17° 67° (ENE) 18:59:22 145.665 - 145.685
STARS 23 Aug 19:00:01 19:04:22 68° 286° (WNW) 19:08:40 437.465
XW-2B 23 Aug 19:00:28 19:03:45 28° 264° (W) 19:07:04 145.730 - 145.750
AAUSAT CUBESAT 2 23 Aug 19:11:50 19:14:50 20° 65° (ENE) 19:17:51 437.432
CUBESAT XI-V 23 Aug 19:13:01 19:15:07 13° 301° (WNW) 19:17:12 437.345
AO-73 23 Aug 19:17:56 19:19:29 12° 61° (ENE) 19:21:03 145.935
XW-2C 23 Aug 19:20:40 19:23:11 17° 268° (W) 19:25:43 145.795 - 145.815
STRAND 1 23 Aug 19:24:42 19:28:07 18° 91° (E) 19:31:31 437.568
CUTE 1.7 + AOD 2 23 Aug 19:28:46 19:33:00 83° 255° (WSW) 19:37:19 437.475
XW-2F 23 Aug 19:30:37 19:32:40 14° 269° (W) 19:34:43 145.980 - 146.000
O/OREOS (USA 219) 23 Aug 19:37:33 19:41:56 47° 252° (WSW) 19:46:18 437.305
KAITUO 1B 23 Aug 19:52:00 19:52:21 10° 271° (W) 19:52:40 145.475/437.950
CUTE-I 23 Aug 19:52:57 19:56:26 17° 270° (W) 19:59:56 437.470
Oscar 11 23 Aug 19:56:59 20:00:25 24° 66° (ENE) 20:03:52 .
UWE-3 23 Aug 19:59:38 20:03:45 65° 75° (ENE) 20:07:52 435.000/436.395/437.385
SEEDS 23 Aug 20:10:29 20:14:32 46° 261° (W) 20:18:37 437.485
CUBEBUG 2 23 Aug 20:14:00 20:18:07 50° 261° (W) 20:22:11 437.445
RS-15 23 Aug 20:14:36 20:26:44 85° 238° (WSW) 20:38:11 29.354- 29.394
HO-68 23 Aug 20:23:23 20:29:51 36° 263° (W) 20:36:23 435.675
XW-2A 23 Aug 20:26:45 20:29:36 26° 263° (W) 20:32:31 145.665 - 145.685
ZACube-1 23 Aug 20:31:51 20:35:59 81° 76° (ENE) 20:40:09 437.345
AAUSAT CUBESAT 2 23 Aug 20:46:04 20:50:00 40° 262° (W) 20:53:59 437.432
AO-73 23 Aug 20:51:03 20:55:09 70° 258° (WSW) 20:59:18 145.935
STRAND 1 23 Aug 21:02:40 21:07:41 60° 288° (WNW) 21:12:42 437.568
EO-88 23 Aug 21:14:03 21:16:47 20° 67° (ENE) 21:19:31 145.990 - 145.960
DELFI C3 23 Aug 21:21:09 21:24:57 43° 72° (ENE) 21:28:46 145.870
Oscar 11 23 Aug 21:32:27 21:36:22 34° 264° (W) 21:40:20 .
UWE-3 23 Aug 21:39:22 21:40:39 11° 271° (W) 21:41:56 435.000/436.395/437.385
UNISAT 6 23 Aug 21:42:52 21:44:16 11° 89° (E) 21:45:40 437.425
SO-50 23 Aug 21:48:43 21:51:42 18° 111° (ESE) 21:54:41 436.795
Max Valier Satellite 23 Aug 21:59:58 22:03:37 85° 257° (WSW) 22:07:18 145.860
PCSat 23 Aug 22:07:08 22:12:17 46° 114° (ESE) 22:17:28 145.827
FO-29 23 Aug 22:13:53 22:19:18 55° 100° (E) 22:24:22 435.910
TIGRISAT 23 Aug 22:15:13 22:18:42 23° 94° (E) 22:22:13 435.000
PRISM 23 Aug 22:21:09 22:24:01 18° 93° (E) 22:26:52 437.425
RS-15 23 Aug 22:28:55 22:37:16 23° 261° (W) 22:45:23 29.354- 29.394
LO-87 23 Aug 22:32:45 22:35:36 23° 69° (ENE) 22:38:28 145.935 - 145.965
EO-88 23 Aug 22:47:07 22:50:17 28° 264° (W) 22:53:29 145.990 - 145.960
DELFI C3 23 Aug 22:57:26 22:59:55 16° 269° (W) 23:02:25 145.870
ESTCUBE 1 23 Aug 23:03:35 23:07:47 39° 70° (ENE) 23:12:01 437.505/2401.250
UNISAT 6 23 Aug 23:17:07 23:21:26 72° 286° (WNW) 23:25:50 437.425
SO-50 23 Aug 23:27:16 23:31:43 59° 309° (NW) 23:36:11 436.795
NO-84 23 Aug 23:46:01 23:47:18 12° 129° (SE) 23:48:32 435.350 FM
PCSat 23 Aug 23:51:03 23:55:51 31° 313° (NW) 00:00:41 145.827
TIGRISAT 23 Aug 23:51:32 23:55:27 34° 290° (WNW) 23:59:25 435.000
DUCHIFAT 1 23 Aug 23:54:37 23:56:10 12° 90° (E) 23:57:44 145.980
PRISM 23 Aug 23:55:36 23:59:28 40° 290° (WNW) 00:03:18 437.425
FO-29 23 Aug 23:59:54 00:03:57 21° 301° (WNW) 00:07:49 435.910
LO-87 24 Aug 00:06:01 00:08:57 24° 265° (W) 00:11:54 145.935 - 145.965
SPROUT 24 Aug 00:12:59 00:17:07 52° 73° (ENE) 00:21:16 437.525
AIST 2D 24 Aug 00:15:55 00:19:28 68° 101° (ESE) 00:23:01 435.315
50 SAT 24 Aug 00:20:05 00:22:14 16° 66° (ENE) 00:24:23 437.505
DX 1 24 Aug 00:23:28 00:26:27 18° 63° (ENE) 00:29:27 434.975-435.025
M-CUBED/EXP-1 PRIME 24 Aug 00:29:19 00:33:23 40° 103° (ESE) 00:37:07 437.505
VELOX 1 24 Aug 00:31:20 00:35:45 69° 74° (ENE) 00:40:12 145.980
NANOSAT C BR1 24 Aug 00:39:37 00:43:37 41° 99° (E) 00:47:35 145.865
YUBILEINY 24 Aug 00:39:41 00:41:15 10° 49° (NE) 00:42:48 435.215
ESTCUBE 1 24 Aug 00:41:12 00:44:43 22° 267° (W) 00:48:15 437.505/2401.250
POLYITAN 1 24 Aug 00:47:33 00:51:43 57° 101° (E) 00:55:53 437.675
EO-79 24 Aug 01:02:19 01:06:33 84° 103° (ESE) 01:10:46 145.935-145.965
QB50P2 24 Aug 01:02:55 01:07:09 87° 284° (WNW) 01:11:22 145.880/145.840
SO-50 24 Aug 01:11:06 01:13:07 13° 330° (NNW) 01:15:09 436.795
BUGSAT 1 24 Aug 01:14:41 01:17:58 24° 95° (E) 01:21:16 437.445
NO-84 24 Aug 01:21:26 01:24:20 59° 325° (NW) 01:27:09 435.350 FM
DUCHIFAT 1 24 Aug 01:28:06 01:32:15 64° 286° (WNW) 01:36:23 145.980
UKube-1 24 Aug 01:29:00 01:33:13 54° 72° (ENE) 01:37:27 .
BEESAT 24 Aug 01:45:21 01:47:01 12° 57° (ENE) 01:48:41 436.000
SPROUT 24 Aug 01:50:54 01:53:19 15° 269° (W) 01:55:45 437.525
50 SAT 24 Aug 01:51:33 01:54:38 32° 262° (W) 01:57:45 437.505
DX 1 24 Aug 01:58:01 02:02:16 49° 260° (W) 02:06:33 434.975-435.025
M-CUBED/EXP-1 PRIME 24 Aug 02:04:12 02:07:30 21° 302° (WNW) 02:10:37 437.505
VELOX 1 24 Aug 02:10:46 02:12:40 12° 271° (W) 02:14:34 145.980
NANOSAT C BR1 24 Aug 02:16:03 02:19:01 19° 295° (WNW) 02:22:01 145.865
ITUPSAT 1 24 Aug 02:19:40 02:23:25 24° 64° (ENE) 02:27:11 437.325
Oscar 19 24 Aug 02:23:06 02:28:14 56° 101° (E) 02:33:20 437.125/150
POLYITAN 1 24 Aug 02:24:41 02:27:03 15° 298° (WNW) 02:29:26 437.675
Gurwin Techsat 1B 24 Aug 02:25:24 02:30:22 39° 97° (E) 02:35:19 435.225
YUBILEINY 24 Aug 02:32:11 02:40:38 51° 74° (ENE) 02:49:01 435.215
MOZHAYETS 4 24 Aug 02:32:40 02:36:22 25° 66° (ENE) 02:40:06
EO-79 24 Aug 02:40:44 02:41:39 11° 301° (WNW) 02:42:33 145.935-145.965
AO-7 24 Aug 02:42:03 02:44:02 11° 84° (E) 02:46:00 .
BUGSAT 1 24 Aug 02:49:50 02:53:19 29° 292° (WNW) 02:56:49 437.445
NO-84 24 Aug 03:00:37 03:02:12 14° 344° (NNW) 03:03:46 435.350 FM
CUBESAT XI-V 24 Aug 03:04:12 03:06:06 12° 59° (ENE) 03:08:00 437.345
UKube-1 24 Aug 03:07:04 03:09:34 15° 269° (W) 03:12:03 .
BEESAT 24 Aug 03:19:17 03:24:02 87° 72° (ENE) 03:28:49 436.000
ITAMSAT 1 24 Aug 03:50:57 03:55:19 27° 95° (E) 03:59:38 435.822/435.867
KKS-1 24 Aug 03:55:04 03:58:02 18° 63° (ENE) 04:01:01 437.445
ITUPSAT 1 24 Aug 03:56:30 04:01:00 42° 262° (W) 04:05:32 437.325
Oscar 19 24 Aug 04:03:17 04:07:09 21° 298° (WNW) 04:10:59 437.125/150
Gurwin Techsat 1B 24 Aug 04:05:36 04:10:11 30° 295° (WNW) 04:14:43 435.225
MOZHAYETS 4 24 Aug 04:09:10 04:13:21 36° 263° (W) 04:17:34
STARS 24 Aug 04:23:46 04:26:13 15° 61° (ENE) 04:28:39 437.465
YUBILEINY 24 Aug 04:29:25 04:37:10 38° 275° (W) 04:44:54 435.215
AO-7 24 Aug 04:30:13 04:38:29 62° 104° (ESE) 04:46:39 .
BEESAT 3 24 Aug 04:32:23 04:36:16 50° 120° (ESE) 04:40:12 437.485
CUBESAT XI-V 24 Aug 04:38:06 04:42:45 86° 258° (WSW) 04:47:30 437.345
NO-84 24 Aug 04:39:49 04:40:37 11° 7° (N) 04:41:26 435.350 FM
BEESAT 2 24 Aug 04:55:12 04:58:39 29° 115° (ESE) 05:02:10 435.950
AO-85 24 Aug 04:56:56 05:00:44 51° 120° (ESE) 05:04:33 145.980
BEESAT 24 Aug 05:01:31 05:02:26 10° 272° (W) 05:03:23 436.000
PCSat 24 Aug 05:11:18 05:13:50 13° 31° (NNE) 05:16:21 145.827
DOVE 4 24 Aug 05:13:34 05:15:18 12° 87° (E) 05:17:01 437.250
KKS-1 24 Aug 05:29:50 05:34:11 52° 260° (W) 05:38:35 437.445
ITAMSAT 1 24 Aug 05:30:03 05:34:54 41° 292° (WNW) 05:39:42 435.822/435.867
STARS 24 Aug 05:57:41 06:02:03 63° 258° (WSW) 06:06:26 437.465
NUDT-PHONESAT 24 Aug 06:12:53 06:13:56 11° 90° (E) 06:14:58 437.300
